User: anonymous   Login
Location: Newark
(37.9128°N, 122.4756°W)
Time: 19:26:18
(UTC+00:00)
Language:

ISS - Orbit

View from above orbital plane
View from above orbital plane
View from above satellite
View from above satellite

Ground track
Ground track

The orbit data is extracted from the following two-line orbital elements,

1 25544U 98067A   19339.80674247  .00016717  00000-0  10270-3 0  9022
2 25544  51.6387 230.4602 0006825   2.6184 357.5001 15.50088926  1872
Epoch (UTC): 05 December 2019 19:21:42
Eccentricity: 0.0006825
inclination: 51.6387°
perigee height: 412 km
apogee height: 421 km
right ascension of ascending node: 230.4602°
argument of perigee: 2.6184°
revolutions per day: 15.50088926
mean anomaly at epoch: 357.5001°
orbit number at epoch: 187

The dashed part of the orbit path shows where the satellite is in the earth's shadow,  

DLR